Regional Weather Roundup
Issued by NWS Midland/Odessa, TX

Skip options and go directly to product.
Home | Oldest Version | Next Version | Current Version | All | Text Only | Save Text | Print | Product List | Glossary On

Skip product version selection by date and time.   
385
ASUS44 KMAF 281501
RWRMAF
MIDLAND AREA WEATHER ROUNDUP
NATIONAL WEATHER SERVICE MIDLAND TX
1000 AM CDT SAT MAY 28 2016

...IN SOUTHWEST TEXAS AND SOUTHEAST NEW MEXICO...

CITY           SKY/WX    TMP DP  RH WIND       PRES   REMARKS
ALPINE         SUNNY     75  24  15 CALM      30.11S
ANDREWS        FAIR      68  34  28 S3        30.02R
ARTESIA        SUNNY     66  39  37 N8        30.05R
BIG SPRING     MOSUNNY   70  49  47 S8        30.01R
CARLSBAD       SUNNY     70  37  29 N17       30.02R
DRYDEN           N/A     72  63  73 E9        29.97R
FORT STOCKTON  SUNNY     80  25  13 SE6       29.99R
GUAD PASS      NOT AVBL
HOBBS          SUNNY     68  41  37 NE10      30.05R
MARFA          SUNNY     77  16  10 VRB3      30.10R
MIDLAND AIRPK  SUNNY     79  22  12 SW5       29.99R
MIDLAND INTL   SUNNY     82  19   9 SW8       29.98R
ODESSA         SUNNY     80  18  10 SW8       30.00R
PECOS          SUNNY     71  22  15 CALM      29.98R
PRESIDIO       FAIR      74  20  13 CALM      29.97S
SEMINOLE       SUNNY     67  44  43 E12       30.03R
SNYDER           N/A     69  53  56 NE6       30.00S
WINK           SUNNY     74  24  15 S5        29.97R
$$
...OTHER STATIONS IN TEXAS...

CITY           SKY/WX    TMP DP  RH WIND       PRES   REMARKS
ABILENE        SUNNY     75  67  76 S5        29.97R
AMARILLO       SUNNY     66  47  50 N10       30.05R
AUSTIN         CLOUDY    76  74  93 S8        29.94R FOG
BROWNSVILLE    PTSUNNY   86  76  71 SE21G26   29.90R
CORPUS CHRISTI CLOUDY    82  75  79 SE18      29.92R
DALLAS FTW     PTSUNNY   72  65  78 SW8       29.95R
DEL RIO        CLOUDY    75  74  96 SE10      29.93S
EL PASO        SUNNY     72  19  13 CALM      30.02R
HOUSTON INT    SUNNY     77  70  79 S3        29.95R
LUBBOCK        SUNNY     67  44  43 E13       30.03R
SAN ANGELO     SUNNY     77  68  73 S9        29.96R
SAN ANTONIO    CLOUDY    77  73  87 S10       29.96R
WACO           CLOUDY    72  67  84 S6        29.95S
WICHITA FALLS  NOT AVBL
$$
...OTHER LOCATIONS IN NEW MEXICO...

CITY           SKY/WX    TMP DP  RH WIND       PRES   REMARKS
ALAMAGORDO     SUNNY     70  19  14 S8        30.05R
ALBUQUERQUE    SUNNY     61  31  32 CALM      30.10R
CANNON AFB     SUNNY     67  41  39 E7        30.07R
CLOVIS         SUNNY     66  43  42 NE8       30.07R
HOLLOMAN AFB   SUNNY     69  19  14 S14       30.03R
ROSWELL        SUNNY     67  40  37 NE7       30.05R
RUIDOSO          N/A     61  25  25 SE8       30.19R
SANTA FE       SUNNY     58  32  37 N7        30.14R
TRUTH OR CONSE SUNNY     69  24  18 NE3       30.06R
TUCUMCARI      SUNNY     65  41  41 VRB6      30.06R
$$

USA.gov is the U.S. government's official web portal to all federal, state and local government web resources and services.